EHI
14 13 11 9 11 16 19 19 19 20 21 20 18 15 12 8 6 6 6 5 4 3 3 4 6 8 9 10 9 8 8 8 9 9 8 9 9 8 8 8 5 3 3
12 12 12 11 12 15 18 19 18 18 18 18 16 14 11 8 6 6 6 5 4 3 3 4 6 7 8 8 7 7 8 8 8 8 7 7 8 7 6 5 3 2 3
9 11 13 14 13 13 14 16 17 18 17 16 14 12 11 8 7 6 6 6 5 4 3 4 5 6 6 6 5 5 6 8 8 7 5 5 6 6 5 2 1 1 3
9 10 13 14 14 13 13 14 17 18 18 16 14 12 12 10 8 7 7 7 6 4 3 3 4 4 4 4 4 4 5 7 8 6 4 4 4 4 4 3 3 3 3
9 10 12 13 14 14 15 17 18 18 17 15 14 14 13 11 9 7 7 7 7 5 4 3 3 3 3 3 4 3 4 6 7 6 5 5 5 3 3 4 4 5 4
10 10 11 12 14 15 17 19 20 17 13 12 14 15 13 11 10 8 7 6 5 5 4 3 3 3 3 4 4 3 3 4 6 7 6 5 6 5 4 3 4 5 5
10 10 10 11 13 15 17 19 20 16 11 9 12 14 12 10 8 8 7 5 4 4 4 4 3 3 3 3 2 1 2 4 7 7 6 6 7 7 5 3 3 4 4
10 10 10 10 13 16 17 19 19 17 13 11 12 12 10 6 5 6 6 5 4 3 3 3 3 3 3 2 1 0 1 4 5 6 6 7 8 8 7 5 4 4 3
9 9 9 11 14 17 18 19 19 17 15 14 13 11 8 5 4 5 6 5 4 3 2 3 3 3 3 2 1 0 1 2 3 5 6 7 6 7 8 8 6 4 4
8 9 9 12 16 19 18 18 17 16 14 14 12 9 8 7 6 6 5 4 3 3 3 3 3 3 3 3 2 1 0 1 2 3 4 4 4 6 7 8 7 6 6
7 8 10 13 17 18 17 16 15 13 11 10 10 8 7 7 6 6 5 5 5 4 4 4 4 4 4 4 3 1 0 0 0 1 1 1 2 4 5 6 6 5 5
7 8 9 11 14 15 14 14 12 10 8 8 8 8 6 6 6 7 7 6 6 6 6 6 6 5 5 4 3 1 0 0 0 0 0 0 1 2 3 4 3 2 3
6 7 8 9 11 12 12 12 11 9 7 7 7 6 6 6 7 8 8 7 7 7 7 7 7 6 5 4 3 2 1 1 1 1 0 0 0 1 1 1 0 0 1
6 7 8 9 10 10 11 11 10 9 7 6 6 5 4 5 6 7 7 7 7 7 7 6 6 6 5 4 3 3 3 2 2 2 1 1 0 0 0 0 0 0 0
5 5 7 8 9 10 10 10 9 8 6 5 4 3 3 3 4 5 6 6 6 5 5 4 3 4 4 3 3 3 3 3 3 3 3 2 1 0 0 0 0 0 0
2 3 5 7 8 9 9 8 7 5 3 2 1 1 1 1 1 3 3 3 3 3 2 1 1 2 2 2 1 1 2 3 3 3 3 3 1 0 0 0 0 0 0
2 3 5 6 7 7 7 6 4 2 1 0 0 0 0 0 0 1 1 1 1 1 0 0 0 1 1 1 0 0 1 1 2 3 3 3 2 1 1 1 0 0 0
3 4 5 6 6 6 5 4 3 1 0 0 0 0 0 0 0 0 0 0 0 0 0 0 0 1 1 1 0 0 0 0 1 1 2 3 3 2 2 1 0 0 0
3 3 4 4 4 4 4 3 2 1 0 0 0 0 0 0 0 0 0 0 0 0 0 0 0 1 1 1 0 0 0 0 0 0 1 1 2 1 1 1 0 0 0
2 2 2 3 3 4 3 2 1 0 0 0 0 0 0 0 0 0 0 0 0 0 0 0 0 0 0 0 0 0 0 0 0 0 0 0 0 0 0 0 0 0 0
2 1 1 1 2 2 1 1 0 0 0 0 0 0 0 0 0 0 0 0 0 0 0 0 0 0 0 0 0 0 0 0 0 0 0 0 0 0 0 0 0 0 0
1 1 1 1 1 1 0 0 0 0 0 0 0 0 0 0 0 0 0 0 0 0 0 0 0 0 0 0 0 0 0 0 0 0 0 0 0 0 0 0 0 0 0
0 1 1 0 0 0 0 0 0 0 0 0 0 0 0 0 0 0 0 0 0 0 0 0 0 0 0 0 0 0 0 0 0 0 0 0 0 0 0 0 0 0 0
1 2 1 1 1 0 0 0 0 0 0 0 0 0 0 0 0 0 0 0 0 0 0 0 0 0 0 0 0 0 0 0 0 0 0 0 0 0 0 0 0 0 0
2 2 2 1 1 0 0 0 0 0 0 0 0 0 0 0 0 0 0 0 0 0 0 0 0 0 0 0 0 0 0 0 0 0 0 0 0 0 0 0 0 0 0
3 2 1 1 0 0 0 0 0 0 0 0 0 0 0 0 0 0 0 0 0 0 0 0 0 0 0 0 0 0 0 0 0 0 0 0 0 0 0 0 0 0 0
Wind_Speed
2 2 1 1 1 0 0 1 2 1 2 2 2 2 3 3 3 3 3 4 4 5 5 4 4 5 4 5 5 5 6 5 4 4 4 5 6 5 5 5 5 6 6
2 1 0 1 1 1 1 2 2 2 2 2 3 3 4 3 3 3 3 4 4 5 5 5 4 4 4 5 5 5 5 5 5 5 4 4 5 6 6 5 5 6 5
1 0 0 1 1 1 2 2 2 2 2 3 3 2 3 3 3 3 3 4 5 5 5 5 5 5 5 4 5 6 7 5 5 5 4 4 4 3 5 6 5 5 5
1 1 1 2 2 2 2 2 2 2 3 3 3 4 4 4 4 4 3 4 5 5 5 5 6 6 5 5 6 5 5 6 5 5 5 4 3 4 3 5 5 6 6
1 1 2 2 3 3 3 2 2 2 2 3 4 5 5 4 4 4 4 5 4 5 5 5 5 6 6 5 5 5 6 5 6 5 4 5 5 6 5 4 4 5 5
1 2 2 2 2 3 3 3 2 2 2 3 4 4 5 5 5 5 4 4 4 4 5 5 5 6 6 6 6 6 7 6 6 6 5 5 5 6 6 6 5 5 4
2 2 2 2 3 3 3 3 3 3 3 4 4 4 5 6 6 6 5 5 4 4 4 4 5 5 6 6 6 6 6 7 7 7 5 5 5 5 6 6 5 5 4
2 3 3 3 3 4 4 4 4 4 4 4 4 4 5 5 4 5 5 5 4 4 4 5 5 6 6 6 5 6 6 6 7 8 7 5 5 6 6 6 5 5 5
3 4 4 4 4 4 4 4 4 4 4 4 4 4 5 5 5 5 5 4 4 4 5 5 5 5 5 6 6 5 5 5 7 7 7 7 5 6 6 5 6 6 6
4 4 4 4 4 4 5 4 4 5 4 4 4 4 5 5 5 5 5 5 5 5 5 5 5 5 5 5 5 5 5 5 6 5 6 6 6 5 5 5 5 6 7
4 4 4 4 4 4 4 4 4 4 4 4 4 4 4 4 4 4 5 5 5 5 5 5 5 5 5 5 5 5 6 6 5 6 6 7 7 6 6 6 6 6 6
5 4 5 5 4 4 4 4 4 4 4 4 4 4 4 4 4 4 5 5 5 4 4 5 5 5 5 5 5 6 5 5 5 6 7 8 6 8 7 6 6 6 5
5 4 4 5 5 5 5 5 5 5 4 4 4 4 4 4 4 5 5 5 4 4 4 5 5 5 4 4 5 5 6 6 7 7 7 8 7 8 7 7 7 6 6
4 5 5 5 5 5 5 5 5 5 4 4 4 3 4 4 5 5 5 5 4 4 4 5 4 4 4 4 5 5 6 7 7 7 7 8 8 9 8 7 7 6 6
5 5 5 5 5 6 5 5 5 5 4 4 4 3 3 4 4 5 5 5 4 4 4 4 4 4 4 4 4 5 6 6 7 7 7 7 6 6 7 6 6 7 6
5 5 5 5 5 6 5 5 5 5 4 4 5 4 4 4 4 4 4 5 5 5 4 4 4 4 3 1 2 5 5 5 6 6 6 6 7 7 8 8 8 8 8
5 5 5 5 5 5 5 5 5 5 5 5 5 4 4 4 5 5 5 5 5 5 4 4 4 4 2 1 3 4 5 5 5 5 5 5 5 6 7 8 9 9 10
5 5 4 5 5 5 5 5 5 5 5 5 6 5 5 5 5 5 6 6 5 5 5 5 5 4 3 1 3 5 6 5 5 5 6 6 6 5 6 6 7 7 7
4 4 4 4 4 5 5 5 5 5 5 6 6 6 5 6 6 6 6 5 5 5 5 5 5 5 4 2 4 5 5 4 5 5 5 5 5 3 3 5 6 5 5
3 4 4 4 4 5 5 5 5 6 6 6 6 6 6 6 7 6 6 6 5 6 6 5 5 5 5 3 3 4 4 4 4 4 4 4 4 3 3 5 5 5 5
3 3 4 4 4 5 5 5 6 6 6 7 6 6 6 6 6 6 6 6 6 5 6 6 6 5 5 3 3 4 5 4 4 4 3 2 3 4 4 5 4 4 4
3 3 3 4 4 4 5 5 6 6 6 7 6 6 6 6 5 6 6 6 6 6 6 5 6 5 4 3 2 3 5 6 4 4 3 1 2 3 4 4 4 4 5
3 3 4 4 4 4 5 6 6 6 7 7 7 7 7 6 6 6 6 6 5 5 5 5 5 4 4 1 1 3 4 5 4 3 2 2 3 4 5 5 6 6 5
3 4 4 5 5 5 5 6 6 6 7 7 7 7 6 6 5 5 5 5 5 5 5 5 5 4 4 3 2 2 2 3 4 3 3 5 6 5 3 3 4 4 3
4 4 5 5 6 6 6 6 6 7 7 7 7 7 6 6 5 4 4 6 4 5 6 6 5 5 4 4 5 5 4 5 4 5 4 3 2 2 2 2 2 2 2
4 5 5 6 6 6 6 6 6 6 7 7 7 6 6 5 5 5 4 2 4 3 3 5 6 5 4 4 4 4 5 5 5 5 4 3 3 2 2 2 2 2 1
Wind_Direction
92 83 61 12 63 62 321 315 319 321 306 304 295 287 279 284 282 275 273 270 270 264 262 261 247 252 247 247 241 236 223 226 232 237 238 231 226 227 232 232 237 229 230
80 75 37 19 357 342 312 294 295 301 292 301 290 286 289 279 277 279 268 264 267 266 255 257 249 245 244 239 243 240 238 225 218 230 236 229 215 215 223 225 226 235 232
28 28 326 322 327 328 308 309 308 295 286 287 279 280 266 262 260 268 264 266 271 266 268 257 255 249 245 236 238 233 231 229 219 222 237 244 239 230 209 221 225 227 232
355 357 333 334 332 328 323 318 303 288 281 273 280 284 281 281 285 280 277 273 269 266 260 255 251 251 249 243 237 225 236 233 226 213 230 252 279 247 231 217 215 218 226
341 351 332 336 339 337 336 334 323 297 284 277 273 273 278 282 280 278 274 273 264 262 258 253 251 249 249 244 245 234 241 236 238 229 219 226 235 240 251 241 231 227 223
317 314 330 347 343 339 340 341 334 315 297 287 284 280 287 288 287 280 275 268 262 258 257 255 254 251 248 240 236 233 230 239 241 244 235 229 232 233 238 241 235 235 230
297 307 320 329 331 329 330 326 322 310 299 293 289 286 287 283 276 276 270 269 268 263 261 264 257 254 248 243 237 232 236 235 237 240 239 239 241 246 245 246 244 246 237
307 309 311 316 321 318 318 316 315 308 303 298 292 286 282 280 281 277 280 273 274 273 272 263 258 259 255 246 235 236 232 230 233 238 239 242 241 243 243 244 243 244 239
314 310 314 321 317 312 310 307 306 304 301 301 299 290 288 288 288 282 277 275 274 271 265 264 258 257 256 250 238 236 237 234 235 234 231 239 239 241 245 245 242 245 247
328 325 323 324 324 322 315 308 304 305 306 307 301 297 291 288 289 287 293 292 284 280 274 268 265 259 255 249 240 242 231 235 236 237 239 242 242 241 241 242 243 245 250
337 337 332 331 325 320 311 314 312 309 309 308 306 303 295 293 292 291 291 292 289 280 273 270 266 260 255 247 236 240 235 234 236 238 234 237 243 243 243 241 241 241 243
337 342 345 339 333 329 326 325 319 312 307 307 308 302 302 303 299 300 296 293 289 280 275 275 270 262 258 251 240 238 240 240 240 239 239 238 236 233 237 240 241 242 243
337 343 351 345 337 335 329 324 320 317 311 305 302 302 303 304 305 310 312 308 299 291 286 279 275 270 265 258 246 238 244 244 243 241 242 240 237 238 234 234 238 241 238
343 347 345 342 340 337 331 331 328 323 314 311 311 311 311 314 314 316 318 315 307 296 289 281 278 273 265 260 253 243 242 246 247 244 243 242 239 240 237 232 232 237 239
352 352 345 343 341 339 335 337 336 332 326 318 313 312 314 313 314 318 316 316 308 295 285 277 274 268 257 259 263 254 246 246 249 246 242 245 244 247 246 243 232 230 233
354 353 349 344 341 338 337 340 339 339 338 333 328 328 319 317 317 315 312 312 309 300 283 270 274 272 273 320 289 271 263 256 256 257 252 247 230 230 229 238 239 240 235
351 351 350 349 344 338 337 334 334 337 334 329 325 326 321 320 320 319 316 315 311 304 292 283 279 276 289 286 265 266 264 263 260 258 257 258 253 239 236 220 217 228 235
343 346 344 346 344 344 341 332 333 336 332 329 327 325 322 318 317 315 316 313 307 303 295 292 289 283 290 270 260 266 256 259 256 256 258 260 262 258 251 241 234 234 232
333 334 332 338 341 346 342 335 335 334 332 332 330 328 324 318 316 315 312 309 307 303 298 295 295 292 292 276 259 258 265 256 257 258 261 260 259 266 242 235 238 242 245
346 336 328 334 343 344 340 336 335 335 333 331 328 326 321 316 314 310 304 304 303 299 299 300 296 293 295 297 268 260 265 266 267 264 262 257 253 262 229 233 240 243 251
348 334 326 337 342 339 335 332 331 333 329 326 323 321 317 311 307 306 306 305 298 299 297 297 294 291 292 282 257 255 265 275 277 276 273 269 191 227 238 241 245 251 261
345 337 332 336 338 338 333 330 331 329 324 321 319 316 311 306 307 305 304 303 299 293 285 284 286 288 285 286 270 241 254 281 280 283 288 291 174 215 235 235 237 240 246
342 331 323 329 336 339 333 326 326 321 317 316 315 312 307 303 301 300 300 299 295 293 297 296 300 305 306 307 185 228 244 256 263 285 311 297 252 243 232 218 221 227 233
332 321 315 322 330 333 326 317 316 315 312 312 311 309 306 303 306 305 302 304 309 307 306 307 311 314 309 317 328 308 275 241 239 259 243 219 226 234 247 223 214 227 238
327 319 313 315 320 321 320 318 318 314 312 311 310 309 310 314 314 308 310 309 317 324 312 315 314 310 310 344 351 324 315 317 331 315 274 259 247 237 226 224 231 232 225
323 320 317 317 317 316 317 321 319 312 308 307 309 310 311 314 309 309 301 276 269 275 266 276 292 304 317 318 317 312 302 293 288 278 265 264 259 260 261 249 243 246 240